Time,TemperatureF,DewpointF,PressureIn,WindDirection,WindDirectionDegrees,WindSpeedMPH,WindSpeedGustMPH,Humidity,HourlyPrecipIn,Conditions,Clouds,dailyrainin,SoftwareType,DateUTC
2013-11-13 00:00:00,41.0,33.3,30.55,SE,124,1.0,4.0,74,0.00,,,0.00,Wunderground v.1.15,2013-11-13 07:00:00,
2013-11-13 00:10:00,40.6,33.3,30.55,SE,124,0.0,1.0,75,0.00,,,0.00,Wunderground v.1.15,2013-11-13 07:10:00,
2013-11-13 00:20:00,40.1,33.1,30.55,SE,124,0.0,0.0,76,0.00,,,0.00,Wunderground v.1.15,2013-11-13 07:20:00,
2013-11-13 00:30:00,39.6,33.0,30.55,SE,124,0.0,0.0,77,0.00,,,0.00,Wunderground v.1.15,2013-11-13 07:30:00,
2013-11-13 00:40:00,39.3,33.0,30.55,SE,124,0.0,2.0,78,0.00,,,0.00,Wunderground v.1.15,2013-11-13 07:40:00,
2013-11-13 00:50:00,39.3,33.3,30.55,SE,124,0.0,0.0,79,0.00,,,0.00,Wunderground v.1.15,2013-11-13 07:50:00,
2013-11-13 01:00:00,39.1,33.5,30.54,SE,124,1.0,1.0,80,0.00,,,0.00,Wunderground v.1.15,2013-11-13 08:00:00,
2013-11-13 01:10:00,39.0,33.7,30.54,SE,124,0.0,5.0,81,0.00,,,0.00,Wunderground v.1.15,2013-11-13 08:10:00,
2013-11-13 01:20:00,38.8,33.2,30.55,SE,124,0.0,5.0,80,0.00,,,0.00,Wunderground v.1.15,2013-11-13 08:20:00,
2013-11-13 01:30:00,38.6,33.0,30.54,SE,124,1.0,5.0,80,0.00,,,0.00,Wunderground v.1.15,2013-11-13 08:30:00,
2013-11-13 01:40:00,38.6,33.0,30.54,SE,124,1.0,5.0,80,0.00,,,0.00,Wunderground v.1.15,2013-11-13 08:40:00,
2013-11-13 01:50:00,38.4,33.1,30.54,ESE,119,2.0,5.0,81,0.00,,,0.00,Wunderground v.1.15,2013-11-13 08:50:00,
2013-11-13 02:00:00,38.1,32.8,30.54,ESE,109,1.0,1.0,81,0.00,,,0.00,Wunderground v.1.15,2013-11-13 09:00:00,
2013-11-13 02:10:00,37.8,32.8,30.54,ESE,109,1.0,1.0,82,0.00,,,0.00,Wunderground v.1.15,2013-11-13 09:10:00,
2013-11-13 02:20:00,37.7,33.0,30.54,East,94,2.0,5.0,83,0.00,,,0.00,Wunderground v.1.15,2013-11-13 09:20:00,
2013-11-13 02:30:00,37.6,33.2,30.53,East,93,1.0,5.0,84,0.00,,,0.00,Wunderground v.1.15,2013-11-13 09:30:00,
2013-11-13 02:40:00,37.5,33.4,30.53,ENE,76,2.0,2.0,85,0.00,,,0.00,Wunderground v.1.15,2013-11-13 09:40:00,
2013-11-13 02:50:00,37.5,33.1,30.53,ENE,75,1.0,1.0,84,0.00,,,0.00,Wunderground v.1.15,2013-11-13 09:50:00,
2013-11-13 03:00:00,37.4,33.3,30.53,ENE,75,0.0,5.0,85,0.00,,,0.00,Wunderground v.1.15,2013-11-13 10:00:00,
2013-11-13 03:10:00,37.3,33.2,30.53,ENE,75,0.0,5.0,85,0.00,,,0.00,Wunderground v.1.15,2013-11-13 10:10:00,
2013-11-13 03:20:00,37.1,33.0,30.53,ENE,75,0.0,5.0,85,0.00,,,0.00,Wunderground v.1.15,2013-11-13 10:20:00,
2013-11-13 03:30:00,36.9,32.8,30.52,ENE,75,0.0,5.0,85,0.00,,,0.00,Wunderground v.1.15,2013-11-13 10:30:00,
2013-11-13 03:40:00,36.6,32.8,30.53,ENE,75,0.0,5.0,86,0.00,,,0.00,Wunderground v.1.15,2013-11-13 10:40:00,
2013-11-13 03:50:00,36.4,32.6,30.53,ENE,75,0.0,5.0,86,0.00,,,0.00,Wunderground v.1.15,2013-11-13 10:50:00,
2013-11-13 16:00:00,55.2,38.4,30.29,SSE,158,2.0,-999.0,53,0.00,,,0.00,Wunderground v.1.15,2013-11-13 23:00:00,
2013-11-13 16:05:00,55.2,38.4,30.29,SSE,158,2.0,-999.0,53,0.00,,,0.00,Wunderground v.1.15,2013-11-13 23:05:00,
2013-11-13 16:10:00,55.2,38.4,30.29,SSE,158,2.0,-999.0,53,0.00,,,0.00,Wunderground v.1.15,2013-11-13 23:10:00,
2013-11-13 16:15:00,54.8,38.5,30.27,SSE,158,4.0,-999.0,54,0.00,,,0.00,Wunderground v.1.15,2013-11-13 23:15:00,
2013-11-13 16:20:00,54.8,38.5,30.27,SSE,158,4.0,-999.0,54,0.00,,,0.00,Wunderground v.1.15,2013-11-13 23:20:00,
2013-11-13 16:25:00,54.8,38.5,30.27,SSE,158,4.0,-999.0,54,0.00,,,0.00,Wunderground v.1.15,2013-11-13 23:25:00,
2013-11-13 16:30:00,54.8,38.5,30.27,SSE,158,4.0,-999.0,54,0.00,,,0.00,Wunderground v.1.15,2013-11-13 23:30:00,
2013-11-13 16:49:00,54.1,38.3,30.26,SE,146,5.0,5.0,55,0.00,,,0.00,Wunderground v.1.15,2013-11-13 23:49:00,
2013-11-13 17:00:00,53.6,38.3,30.26,SSE,166,4.0,4.0,56,0.00,,,0.00,Wunderground v.1.15,2013-11-14 00:00:00,
2013-11-13 17:10:00,53.4,38.5,30.26,SSE,164,3.0,4.0,57,0.00,,,0.00,Wunderground v.1.15,2013-11-14 00:10:00,
2013-11-13 17:20:00,53.2,38.8,30.26,SSE,162,4.0,4.0,58,0.00,,,0.00,Wunderground v.1.15,2013-11-14 00:20:00,
2013-11-13 17:30:00,53.0,39.0,30.26,SSE,162,3.0,3.0,59,0.00,,,0.00,Wunderground v.1.15,2013-11-14 00:30:00,
2013-11-13 17:40:00,52.9,39.4,30.27,SSE,162,1.0,1.0,60,0.00,,,0.00,Wunderground v.1.15,2013-11-14 00:40:00,
2013-11-13 17:50:00,52.8,39.3,30.27,SSE,162,1.0,1.0,60,0.00,,,0.00,Wunderground v.1.15,2013-11-14 00:50:00,
2013-11-13 18:00:00,52.5,39.0,30.27,SSE,162,0.0,9.0,60,0.00,,,0.00,Wunderground v.1.15,2013-11-14 01:00:00,
2013-11-13 18:10:00,52.2,39.1,30.27,SSE,162,1.0,9.0,61,0.00,,,0.00,Wunderground v.1.15,2013-11-14 01:10:00,
2013-11-13 18:20:00,52.0,39.4,30.27,SSE,162,1.0,1.0,62,0.00,,,0.00,Wunderground v.1.15,2013-11-14 01:20:00,
2013-11-13 18:30:00,51.9,39.3,30.27,SSE,162,0.0,9.0,62,0.00,,,0.00,Wunderground v.1.15,2013-11-14 01:30:00,
2013-11-13 18:40:00,51.6,39.4,30.26,SSE,162,0.0,9.0,63,0.00,,,0.00,Wunderground v.1.15,2013-11-14 01:40:00,
2013-11-13 18:50:00,51.2,39.0,30.26,SSE,162,0.0,9.0,63,0.00,,,0.00,Wunderground v.1.15,2013-11-14 01:50:00,
2013-11-13 19:00:00,51.0,39.2,30.26,SSE,162,0.0,9.0,64,0.00,,,0.00,Wunderground v.1.15,2013-11-14 02:00:00,
2013-11-13 19:10:00,51.0,39.2,30.26,SSE,162,0.0,9.0,64,0.00,,,0.00,Wunderground v.1.15,2013-11-14 02:10:00,
2013-11-13 19:20:00,50.9,39.1,30.25,SSE,162,0.0,9.0,64,0.00,,,0.00,Wunderground v.1.15,2013-11-14 02:20:00,
2013-11-13 19:30:00,50.8,39.1,30.25,SSE,162,0.0,9.0,64,0.00,,,0.00,Wunderground v.1.15,2013-11-14 02:30:00,
2013-11-13 19:40:00,50.5,39.2,30.25,SSE,162,0.0,9.0,65,0.00,,,0.00,Wunderground v.1.15,2013-11-14 02:40:00,
2013-11-13 19:50:00,50.2,39.3,30.25,SSE,162,0.0,9.0,66,0.00,,,0.00,Wunderground v.1.15,2013-11-14 02:50:00,
2013-11-13 20:00:00,50.1,39.2,30.25,SSE,162,0.0,9.0,66,0.00,,,0.00,Wunderground v.1.15,2013-11-14 03:00:00,
2013-11-13 20:10:00,50.1,39.2,30.25,SSE,162,0.0,9.0,66,0.00,,,0.00,Wunderground v.1.15,2013-11-14 03:10:00,
2013-11-13 20:20:00,50.0,39.1,30.25,SSE,162,0.0,9.0,66,0.00,,,0.00,Wunderground v.1.15,2013-11-14 03:20:00,
2013-11-13 20:30:00,49.9,39.0,30.24,SSE,162,0.0,9.0,66,0.00,,,0.00,Wunderground v.1.15,2013-11-14 03:30:00,
2013-11-13 20:40:00,49.6,39.1,30.24,SSE,162,0.0,9.0,67,0.00,,,0.00,Wunderground v.1.15,2013-11-14 03:40:00,
2013-11-13 20:50:00,49.0,38.9,30.24,SSE,162,0.0,9.0,68,0.00,,,0.00,Wunderground v.1.15,2013-11-14 03:50:00,
2013-11-13 21:00:00,48.5,38.8,30.24,SSE,162,0.0,9.0,69,0.00,,,0.00,Wunderground v.1.15,2013-11-14 04:00:00,
2013-11-13 21:10:00,48.2,38.9,30.24,SSE,162,0.0,9.0,70,0.00,,,0.00,Wunderground v.1.15,2013-11-14 04:10:00,
2013-11-13 21:20:00,48.0,38.7,30.24,SSE,162,0.0,9.0,70,0.00,,,0.00,Wunderground v.1.15,2013-11-14 04:20:00,
2013-11-13 21:30:00,47.5,38.6,30.24,SSE,162,0.0,9.0,71,0.00,,,0.00,Wunderground v.1.15,2013-11-14 04:30:00,
2013-11-13 21:40:00,47.4,38.5,30.23,SSE,162,0.0,9.0,71,0.00,,,0.00,Wunderground v.1.15,2013-11-14 04:40:00,
2013-11-13 21:50:00,47.3,38.4,30.23,SSE,162,0.0,9.0,71,0.00,,,0.00,Wunderground v.1.15,2013-11-14 04:50:00,
2013-11-13 22:00:00,47.5,38.9,30.23,SSE,162,1.0,1.0,72,0.00,,,0.00,Wunderground v.1.15,2013-11-14 05:00:00,
2013-11-13 22:10:00,47.9,39.3,30.23,SSE,162,2.0,2.0,72,0.00,,,0.00,Wunderground v.1.15,2013-11-14 05:10:00,
2013-11-13 22:20:00,48.1,39.5,30.23,SSE,159,1.0,9.0,72,0.00,,,0.00,Wunderground v.1.15,2013-11-14 05:20:00,
2013-11-13 22:30:00,48.1,39.5,30.22,SSE,159,1.0,9.0,72,0.00,,,0.00,Wunderground v.1.15,2013-11-14 05:30:00,
2013-11-13 22:40:00,47.7,39.5,30.22,SSE,159,1.0,1.0,73,0.00,,,0.00,Wunderground v.1.15,2013-11-14 05:40:00,
2013-11-13 22:50:00,47.5,39.6,30.21,SSE,159,0.0,9.0,74,0.00,,,0.00,Wunderground v.1.15,2013-11-14 05:50:00,
2013-11-13 23:00:00,47.5,39.6,30.21,SSE,156,2.0,2.0,74,0.00,,,0.00,Wunderground v.1.15,2013-11-14 06:00:00,
2013-11-13 23:10:00,47.2,39.7,30.21,SSE,156,0.0,9.0,75,0.00,,,0.00,Wunderground v.1.15,2013-11-14 06:10:00,
2013-11-13 23:20:00,47.0,39.8,30.21,SSE,156,1.0,9.0,76,0.00,,,0.00,Wunderground v.1.15,2013-11-14 06:20:00,
2013-11-13 23:30:00,47.0,39.8,30.21,SSE,148,2.0,9.0,76,0.00,,,0.00,Wunderground v.1.15,2013-11-14 06:30:00,
2013-11-13 23:40:00,46.8,39.6,30.20,SSE,148,1.0,9.0,76,0.00,,,0.00,Wunderground v.1.15,2013-11-14 06:40:00,
2013-11-13 23:50:00,46.5,39.7,30.20,SSE,148,1.0,1.0,77,0.00,,,0.00,Wunderground v.1.15,2013-11-14 06:50:00,